User: anonymous   Login
Location: Galahad
(52.5136°N, 111.9273°W)
Time: 18:39:25
(UTC+00:00)
Language:

Tiangong - Orbit

View from above orbital plane
View from above orbital plane
View from above satellite
View from above satellite

Ground track
Ground track

The orbit data is extracted from the following two-line orbital elements,

1 48274U 21035A   22015.62418169  .00002420  00000-0  32237-4 0  9992
2 48274  41.4712  68.4526 0003213  50.6877  85.2978 15.60756908 40919
Epoch (UTC): 15 January 2022 14:58:49
Eccentricity: 0.0003213
inclination: 41.4712°
perigee height: 383 km
apogee height: 387 km
right ascension of ascending node: 68.4526°
argument of perigee: 50.6877°
revolutions per day: 15.60756908
mean anomaly at epoch: 85.2978°
orbit number at epoch: 4091

The dashed part of the orbit path shows where the satellite is in the earth's shadow,  

DLR